CAPE
0 0 0 0 0 0 0 0 0 0 0 0 0 0 0 0 0 0 0 0 0 0 0 0 0 0 0 13 89 196 338 635 600 559 446 422 313 478 728 791 888 842 935 712
0 0 0 0 0 0 0 0 0 0 1 0 0 0 4 2 0 0 0 0 0 0 0 0 0 0 12 63 167 311 459 697 584 481 426 300 469 599 620 663 776 828 841 605
0 0 0 0 0 0 0 0 0 0 0 1 0 0 0 0 0 0 0 0 0 0 0 9 0 24 45 113 265 348 574 674 558 521 571 850 765 601 545 664 709 781 713 651
0 0 0 0 0 0 0 0 0 0 0 0 0 0 0 0 0 0 0 0 0 0 0 17 22 54 117 180 253 446 561 665 606 591 578 558 320 265 340 356 443 556 592 553
0 0 0 0 0 0 0 0 0 0 0 0 0 0 0 0 0 0 0 0 0 0 0 22 51 108 101 164 301 460 573 447 627 689 620 618 369 361 366 296 610 898 761 492
0 0 0 0 0 0 0 0 0 0 0 0 0 7 1 0 10 0 0 0 0 28 20 54 67 73 140 182 303 426 411 636 701 834 768 529 593 454 486 542 834 878 813 839
0 0 0 0 0 0 0 0 0 0 1 0 0 9 0 0 0 0 0 0 25 43 100 119 95 121 157 197 268 298 454 604 738 760 626 538 632 650 718 677 612 728 871 926
7 6 0 0 0 0 0 0 0 0 0 2 3 0 0 0 0 0 0 0 13 56 168 185 136 186 167 182 233 224 419 450 573 572 570 596 709 582 615 600 641 548 959 735
43 11 0 0 0 0 0 0 0 0 2 0 7 0 0 0 0 0 0 0 4 101 220 197 191 202 169 231 284 353 342 303 411 485 549 697 691 664 533 695 748 902 826 632
34 17 8 0 0 0 0 0 0 0 2 13 0 0 0 0 0 0 0 0 0 190 191 190 217 194 195 266 361 337 164 285 420 496 415 554 591 497 403 632 579 735 807 525
12 8 48 6 0 0 0 0 0 0 0 6 1 0 0 0 0 0 6 17 212 212 189 200 179 176 207 268 306 156 189 330 445 405 354 463 551 400 373 542 446 755 824 663
35 54 32 23 0 0 0 0 0 0 0 0 0 0 0 0 13 0 10 240 225 180 180 155 133 148 216 274 153 100 153 147 282 225 143 353 504 310 451 503 519 591 681 598
7 42 91 37 19 0 0 0 0 0 0 0 0 0 0 0 5 11 122 116 169 186 163 142 115 113 191 220 56 20 71 46 70 13 48 342 460 353 502 544 636 615 702 518
33 4 56 61 2 0 0 0 0 0 0 0 0 0 0 0 7 13 133 157 197 219 203 184 120 116 171 132 6 0 16 33 26 0 9 209 369 362 502 558 521 631 614 529
50 0 2 5 0 0 2 0 0 0 0 0 0 0 0 0 0 3 78 205 238 272 238 204 133 152 182 89 0 0 2 23 2 0 6 141 358 407 431 565 523 447 500 469
39 37 1 0 0 0 0 0 0 0 0 0 0 0 0 0 0 0 51 194 324 351 269 212 144 179 201 68 0 0 0 9 0 0 3 40 272 333 532 647 571 524 340 388
52 36 14 0 13 1 0 0 0 0 0 0 0 0 0 0 0 0 6 179 354 435 337 244 183 241 275 79 0 3 0 7 5 0 0 75 249 256 472 518 555 538 433 73
29 37 15 46 37 27 55 4 0 0 0 0 0 0 0 0 0 0 0 106 269 485 418 320 275 300 354 95 1 5 0 2 1 0 0 131 149 98 418 459 644 764 353 111
20 24 50 52 83 17 61 18 1 0 0 0 0 0 0 0 0 0 0 0 168 495 570 443 372 356 402 110 6 3 1 0 0 0 0 11 94 64 200 47 278 795 910 563
13 13 24 35 57 49 91 2 0 0 2 0 0 0 0 0 0 0 72 213 28 379 640 585 458 412 448 133 29 13 3 0 0 0 0 0 3 65 50 19 275 779 808 545
17 18 11 2 71 85 5 0 0 0 0 0 0 0 0 0 0 0 0 0 158 297 550 654 542 520 536 159 54 23 0 0 0 0 0 0 90 44 79 58 635 815 639 487
29 19 10 1 11 65 1 3 12 12 4 1 0 0 0 0 0 0 0 0 22 365 470 616 577 601 545 202 65 2 0 0 0 0 0 0 149 1 67 38 695 742 653 589
190 40 52 17 41 10 0 14 8 4 3 1 0 0 0 0 0 0 79 56 46 291 432 529 555 614 543 241 53 6 1 0 0 0 0 0 6 63 28 33 453 758 824 461
35 42 34 67 43 18 0 0 2 0 0 2 0 0 0 0 0 30 163 327 319 53 417 549 556 588 557 311 75 5 2 0 0 0 0 0 2 110 167 3 10 258 448 260
9 5 28 41 36 38 0 0 0 0 0 0 0 0 0 0 30 153 267 214 228 97 363 584 567 605 539 368 163 75 0 0 0 12 35 13 0 11 264 156 0 0 79 19
36 56 49 39 13 16 8 0 0 0 0 0 0 0 0 0 6 187 476 486 246 113 215 478 634 636 494 333 209 163 37 0 0 43 58 30 0 6 9 180 77 0 0 0
CIN
-0 -0 -0 -0 -0 -0 -0 -0 -0 -0 -0 -0 -0 -0 -0 -0 -0 -0 -0 -0 -0 -0 -0 -0 -0 -0 -0 -598 -637 -592 -522 -418 -366 -297 -236 -210 -183 -103 -33 -12 -5 -0 -0 -0
-0 -0 -0 -0 -0 -0 -0 -0 -0 -0 -0 -0 -0 -0 -0 -0 -0 -0 -0 -0 -0 -0 -0 -0 -0 -0 -589 -623 -613 -560 -465 -339 -301 -252 -216 -194 -119 -50 -26 -5 -0 -0 -0 -0
-0 -0 -0 -0 -0 -0 -0 -0 -0 -0 -0 -0 -0 -0 -0 -0 -0 -0 -0 -0 -0 -0 -0 -99 -0 -498 -545 -577 -560 -500 -364 -275 -241 -214 -172 -69 -57 -51 -25 -0 -0 -0 -0 -0
-0 -0 -0 -0 -0 -0 -0 -0 -0 -0 -0 -0 -0 -0 -0 -0 -0 -0 -0 -0 -0 -0 -0 -168 -355 -494 -513 -539 -524 -404 -294 -215 -196 -169 -109 -83 -68 -28 -5 -3 -0 -0 -0 -0
-0 -0 -0 -0 -0 -0 -0 -0 -0 -0 -0 -0 -0 -0 -0 -0 -0 -0 -0 -0 -0 -0 -0 -219 -317 -450 -507 -513 -440 -336 -239 -225 -145 -81 -55 -36 -28 -7 -0 -1 -0 -0 -0 -0
-0 -0 -0 -0 -0 -0 -0 -0 -0 -0 -0 -0 -0 -0 -0 -0 -95 -0 -0 -0 -0 -102 -201 -278 -397 -475 -468 -425 -371 -287 -236 -133 -70 -17 -12 -16 -0 -0 -0 -0 -0 -0 -0 -0
-0 -0 -0 -0 -0 -0 -0 -0 -0 -0 -0 -0 -0 -0 -0 -0 -0 -0 -0 -0 -70 -152 -199 -320 -398 -389 -419 -394 -338 -261 -170 -91 -29 -12 -2 -0 -0 -0 -0 -0 -0 -0 -0 -0
-0 -0 -0 -0 -0 -0 -0 -0 -0 -0 -0 -0 -0 -0 -0 -0 -0 -0 -0 -0 -55 -133 -188 -283 -341 -360 -362 -346 -292 -237 -142 -93 -33 -8 -0 -0 -0 -0 -0 -0 -0 -0 -0 -0
-0 -0 -0 -0 -0 -0 -0 -0 -0 -0 -0 -0 -0 -0 -0 -0 -0 -0 -0 -0 -74 -151 -219 -282 -317 -344 -337 -296 -241 -187 -130 -107 -47 -12 -0 -0 -0 -0 -0 -0 -0 -0 -0 -0
-4 -1 -0 -0 -0 -0 -0 -0 -0 -0 -0 -0 -0 -0 -0 -0 -0 -0 -0 -0 -0 -186 -242 -293 -302 -316 -285 -251 -207 -166 -183 -100 -35 -11 -2 -0 -0 -0 -0 -0 -0 -0 -0 -0
-5 -0 -0 -0 -0 -0 -0 -0 -0 -0 -0 -0 -0 -0 -0 -0 -0 -0 -39 -49 -105 -203 -236 -282 -284 -293 -249 -225 -193 -219 -151 -76 -24 -22 -1 -0 -0 -0 -0 -0 -0 -0 -0 -0
-6 -0 -1 -0 -0 -0 -0 -0 -0 -0 -0 -0 -0 -0 -0 -0 -122 -23 -53 -54 -160 -216 -230 -240 -263 -249 -224 -206 -226 -238 -163 -133 -63 -44 -18 -0 -0 -0 -0 -0 -0 -0 -0 -0
-0 -0 -0 -0 -0 -0 -0 -0 -0 -0 -0 -0 -0 -0 -0 -0 -106 -97 -51 -128 -205 -219 -225 -234 -240 -221 -205 -190 -261 -313 -222 -197 -149 -110 -54 -0 -0 -0 -0 -0 -0 -0 -0 -0
-0 -49 -0 -0 -0 -0 -0 -0 -0 -0 -0 -0 -0 -0 -0 -0 -29 -52 -73 -159 -177 -188 -200 -196 -211 -220 -195 -196 -229 -0 -288 -223 -193 -0 -16 -0 -0 -0 -0 -0 -0 -0 -0 -0
-0 -8 -65 -0 -0 -0 -5 -0 -0 -0 -0 -0 -0 -0 -0 -0 -0 -46 -79 -139 -157 -151 -185 -192 -193 -194 -171 -230 -27 -0 -138 -247 -256 -0 -28 -5 -0 -0 -0 -0 -0 -0 -0 -0
-0 -6 -3 -0 -0 -0 -0 -0 -0 -0 -0 -0 -0 -0 -0 -0 -0 -0 -110 -123 -104 -124 -146 -178 -181 -184 -180 -253 -0 -0 -0 -297 -4 -0 -0 -32 -0 -0 -0 -0 -0 -0 -0 -0
-0 -0 -50 -0 -0 -0 -0 -0 -0 -0 -0 -0 -0 -0 -0 -0 -0 -0 -6 -112 -79 -91 -104 -164 -173 -162 -167 -247 -30 -356 -0 -333 -300 -0 -0 -37 -0 -0 -0 -0 -0 -0 -0 -26
-0 -0 -0 -0 -1 -0 -0 -9 -0 -0 -0 -0 -0 -0 -0 -0 -0 -0 -0 -47 -65 -65 -94 -137 -150 -158 -160 -248 -264 -375 -0 -165 -288 -0 -0 -37 -4 -12 -0 -0 -0 -0 -0 -4
-0 -0 -0 -0 -0 -0 -0 -47 -1 -0 -0 -0 -0 -0 -0 -0 -0 -0 -0 -0 -50 -56 -66 -102 -141 -148 -172 -257 -396 -390 -276 -0 -0 -0 -0 -80 -44 -30 -0 -26 -0 -0 -0 -0
-0 -0 -0 -0 -0 -0 -0 -76 -0 -0 -0 -0 -0 -0 -0 -0 -0 -0 -189 -144 -90 -59 -73 -101 -145 -166 -181 -271 -382 -380 -269 -0 -0 -0 -0 -0 -1 -71 -55 -77 -1 -0 -0 -0
-0 -0 -0 -0 -0 -1 -49 -36 -0 -0 -0 -0 -0 -0 -0 -0 -0 -0 -0 -0 -208 -83 -84 -115 -164 -180 -205 -287 -362 -355 -0 -0 -0 -0 -0 -0 -142 -140 -83 -90 -0 -0 -0 -0
-0 -0 -0 -0 -1 -0 -0 -33 -0 -0 -0 -0 -0 -0 -0 -0 -0 -0 -0 -0 -297 -137 -100 -137 -164 -183 -225 -279 -333 -135 -0 -0 -0 -0 -0 -0 -165 -226 -144 -144 -0 -0 -0 -0
-0 -0 -0 -0 -0 -0 -0 -0 -0 -0 -0 -0 -0 -0 -0 -0 -0 -0 -365 -345 -287 -174 -143 -136 -145 -187 -246 -274 -319 -358 -89 -0 -0 -0 -0 -0 -272 -229 -236 -200 -22 -0 -0 -2
-0 -0 -0 -0 -0 -0 -0 -0 -0 -0 -0 -0 -0 -0 -0 -0 -0 -410 -358 -295 -250 -224 -166 -138 -147 -163 -232 -288 -309 -339 -229 -0 -0 -0 -61 -0 -300 -240 -194 -96 -195 -83 -23 -45
-0 -0 -0 -0 -0 -0 -0 -0 -0 -0 -0 -0 -0 -0 -0 -0 -372 -382 -341 -336 -288 -217 -156 -149 -134 -155 -200 -266 -263 -266 -0 -0 -0 -368 -336 -372 -0 -346 -190 -217 -0 -0 -212 -122
-0 -0 -0 -0 -0 -0 -0 -0 -0 -0 -0 -0 -0 -0 -0 -0 -218 -385 -331 -321 -312 -232 -159 -163 -152 -144 -186 -214 -238 -254 -210 -0 -0 -352 -324 -352 -0 -368 -217 -250 -316 -0 -0 -0
Wind_Speed
23 21 29 41 34 26 25 29 29 22 21 21 27 28 23 18 18 23 20 21 21 21 18 10 7 4 4 7 11 13 14 15 13 11 10 8 8 6 5 5 7 9 9 8
21 31 48 28 28 29 29 29 30 23 22 23 23 28 25 24 22 24 22 23 20 20 15 8 3 4 7 10 12 14 15 16 12 9 6 4 4 4 3 3 4 7 8 7
34 42 25 32 30 30 31 30 24 27 19 22 24 29 30 26 26 22 17 18 23 20 15 5 5 6 9 11 13 15 16 15 11 9 7 5 4 4 5 5 5 5 6 7
31 33 30 32 36 34 32 25 24 25 21 24 21 24 27 21 21 22 23 20 20 15 8 5 7 9 10 12 14 16 15 13 10 9 7 5 3 4 1 3 2 4 7 6
30 29 35 32 43 30 31 22 23 24 23 25 27 22 21 19 21 25 20 19 18 8 6 9 9 11 13 15 16 15 14 12 11 8 6 6 4 3 3 2 4 6 4 3
28 17 25 42 20 29 21 17 18 18 17 23 23 22 22 23 27 24 22 14 15 8 7 9 11 14 15 16 15 14 14 12 11 9 7 4 4 3 3 3 4 4 1 4
21 29 19 21 28 26 27 22 12 14 16 17 19 20 20 23 18 25 18 9 9 9 10 14 16 16 17 17 16 14 13 12 11 9 7 6 5 3 4 5 2 2 3 4
22 21 32 21 30 21 29 27 14 19 16 14 21 12 15 10 22 25 21 11 9 11 12 15 17 17 18 17 16 14 13 12 11 9 7 5 5 4 4 2 2 1 4 5
18 28 30 22 27 28 30 27 22 11 10 8 13 14 16 17 21 15 15 16 13 10 13 16 18 17 17 16 15 13 12 11 10 9 6 5 5 3 2 1 1 2 5 5
6 13 24 34 25 27 28 22 22 16 18 16 12 10 8 8 11 12 13 14 13 13 15 17 17 17 15 15 13 12 11 11 10 9 6 6 5 3 1 2 2 4 4 6
14 9 15 28 25 27 20 25 20 17 13 14 8 8 9 17 10 12 12 13 15 16 17 18 17 16 16 15 14 12 11 11 10 8 6 5 4 3 1 1 3 4 6 8
4 8 13 25 24 24 27 21 26 13 20 11 5 3 2 7 2 10 7 10 15 17 18 18 18 17 16 15 14 12 11 11 10 7 7 5 4 3 1 3 3 4 6 8
4 10 11 15 22 21 27 23 26 17 15 19 12 3 6 6 7 4 7 13 16 18 19 19 18 17 16 15 13 13 12 10 9 8 7 6 4 3 4 4 4 5 7 6
7 9 17 5 20 14 25 25 26 22 11 13 14 13 8 8 8 7 8 13 16 18 20 19 18 17 16 15 13 13 12 10 9 7 7 6 5 3 5 5 5 6 7 7
5 13 18 13 6 7 12 24 23 26 20 16 12 18 13 11 8 7 8 16 18 19 19 19 19 17 16 15 13 12 12 11 9 7 7 6 5 5 5 6 6 6 7 8
5 6 13 17 13 8 7 9 24 21 23 19 14 15 15 15 11 4 6 16 18 18 19 19 19 19 17 16 14 13 12 11 9 8 8 7 7 6 6 7 7 8 6 7
6 5 9 18 16 6 11 13 17 21 20 20 21 18 13 5 8 8 4 14 16 17 19 21 20 19 17 17 15 14 13 12 10 9 8 8 7 7 7 7 8 9 7 3
10 7 7 11 14 14 10 8 13 14 19 21 18 15 15 12 7 8 1 9 14 15 17 19 18 18 17 17 16 15 14 13 12 10 9 9 8 7 7 7 8 8 7 5
13 7 5 6 11 10 8 9 4 9 10 7 9 16 20 15 13 12 13 8 12 15 14 15 17 18 18 17 17 16 15 14 13 11 10 10 9 8 7 7 6 7 9 7
12 10 5 6 14 14 11 8 6 5 9 9 7 6 7 7 11 4 13 15 5 13 15 16 18 18 19 18 18 16 16 15 14 13 11 10 9 9 7 7 6 6 8 8
10 6 7 7 8 8 11 9 3 12 7 9 8 7 7 9 11 17 14 11 12 8 13 16 20 20 20 19 19 17 16 16 15 13 12 11 9 9 8 7 7 7 7 9
8 7 5 4 6 5 15 4 5 9 7 8 10 9 11 13 15 16 14 11 9 6 14 18 18 19 20 20 19 18 17 15 15 14 13 12 11 8 8 8 8 8 9 9
4 1 2 3 4 4 8 8 8 7 8 10 11 12 12 15 14 14 12 10 8 7 12 15 16 19 20 21 20 19 17 16 16 15 14 13 12 10 10 9 8 8 8 8
2 6 3 8 4 6 4 8 10 11 11 12 12 13 13 14 13 13 11 8 8 9 13 15 17 19 21 21 20 19 19 18 17 16 15 13 12 12 11 9 8 7 7 7
3 6 5 7 4 4 7 9 14 14 13 15 14 14 13 14 13 12 11 8 8 10 13 16 18 19 21 21 21 19 20 19 17 16 15 14 11 12 11 10 9 8 8 5
1 5 4 3 10 7 8 10 15 12 16 18 15 17 14 14 14 14 12 9 8 11 13 16 18 18 19 21 21 20 20 21 18 16 14 13 12 12 11 10 8 9 8 5
Wind_Direction
193 201 214 217 219 239 250 245 247 236 242 244 249 256 256 261 270 276 286 285 288 289 287 287 293 287 173 175 180 185 178 161 165 165 173 180 199 203 220 235 245 252 248 243
188 215 222 218 224 227 239 246 246 249 238 236 251 268 275 271 272 278 279 282 281 284 285 273 259 180 169 159 165 165 161 162 168 161 178 192 198 197 260 263 256 249 245 240
216 221 217 218 221 226 226 234 240 252 255 251 257 265 267 265 258 272 268 262 272 275 274 243 194 171 157 154 156 158 157 160 162 145 151 157 154 211 214 202 224 213 231 240
230 234 217 222 222 217 229 217 241 255 253 251 247 269 263 272 269 265 268 276 268 257 237 213 172 166 156 149 153 152 152 154 149 167 162 177 230 234 81 255 267 253 232 247
223 226 226 221 223 215 236 227 234 240 249 260 247 256 266 261 265 264 260 262 262 240 233 184 173 158 149 152 146 147 145 152 146 158 165 182 217 166 205 255 259 243 243 236
238 223 224 233 219 221 222 218 225 237 245 243 244 254 257 259 265 268 266 264 236 178 163 158 146 144 146 145 143 143 147 145 154 158 160 178 169 224 262 267 287 261 190 186
228 240 235 236 210 204 202 192 200 218 223 247 241 249 255 253 263 245 260 254 158 168 155 154 151 150 151 147 147 149 149 153 158 163 159 170 189 205 242 268 277 284 188 162
221 221 223 212 213 187 193 190 205 215 230 240 216 251 240 256 248 250 255 239 150 170 159 155 153 148 149 153 153 152 156 160 165 165 162 175 169 217 246 213 300 316 130 191
223 230 191 221 211 197 188 209 212 242 230 273 220 226 271 257 254 247 238 219 181 170 157 154 150 152 154 155 154 153 163 160 169 170 166 175 182 241 348 252 181 159 128 169
277 259 224 198 206 209 197 192 197 218 235 227 242 241 239 257 234 223 214 198 183 163 159 156 153 155 156 155 149 157 164 163 169 168 175 175 162 190 243 168 157 139 151 167
285 258 223 185 200 190 190 195 213 211 230 207 229 219 198 238 245 192 191 180 164 166 161 158 155 157 156 152 152 156 167 165 166 169 171 172 162 162 246 150 170 123 169 166
286 290 273 198 205 217 201 203 199 199 196 250 220 228 288 243 313 209 210 146 156 163 158 158 156 160 155 156 153 161 167 168 167 165 173 168 148 180 155 148 138 144 163 165
0 232 225 211 197 206 195 207 194 213 202 206 223 224 206 134 139 144 136 148 155 155 155 157 159 162 159 158 162 165 170 169 163 169 166 160 155 175 112 131 116 135 142 150
250 253 256 191 195 191 202 203 192 207 207 185 212 207 180 137 120 134 142 157 160 161 159 161 163 164 161 162 169 167 173 163 163 171 168 155 175 120 142 122 111 133 130 141
279 246 227 260 316 301 280 205 205 208 217 228 191 229 239 160 64 43 165 168 166 162 165 165 167 166 161 166 170 172 170 164 163 170 163 151 154 134 157 118 115 119 132 136
278 303 269 251 237 240 245 252 206 207 211 228 233 236 240 280 296 269 172 178 173 170 169 168 168 168 166 169 175 170 169 163 166 168 161 156 164 139 148 131 127 124 110 127
292 306 242 233 213 229 230 209 223 210 213 217 222 232 254 268 225 250 152 187 185 178 172 172 173 170 168 171 177 170 168 163 169 173 155 162 160 154 152 146 132 113 132 102
261 304 270 245 177 218 87 37 205 218 213 222 232 235 231 249 270 265 255 195 199 189 176 174 174 170 170 171 175 169 166 168 174 177 165 167 172 157 149 139 129 132 129 124
227 259 278 222 205 187 104 36 346 202 155 10 308 257 247 257 305 284 272 228 203 202 186 183 175 168 167 172 171 171 168 173 178 178 173 173 171 157 154 137 138 145 142 149
208 227 299 256 213 201 64 5 315 279 182 23 342 319 325 308 247 132 11 2 284 195 184 178 173 167 167 172 171 173 173 178 182 180 177 174 170 163 162 137 151 150 141 143
180 213 232 267 243 99 9 344 167 210 70 348 338 328 314 274 291 330 328 329 325 205 189 176 173 172 170 168 171 178 176 183 182 178 174 170 167 166 154 148 155 152 150 124
177 193 181 233 250 171 3 58 332 18 347 342 340 333 315 299 301 300 303 301 302 211 190 182 179 172 170 169 174 180 181 182 179 177 176 169 164 179 155 161 159 159 146 139
236 27 332 310 37 66 15 54 42 1 343 352 336 334 316 305 302 302 297 284 267 237 195 183 187 174 172 173 178 180 179 181 177 176 177 172 169 176 162 167 167 163 172 158
170 21 305 286 68 17 103 29 15 357 340 341 340 334 323 311 308 301 297 279 247 228 202 185 188 185 176 177 181 183 174 181 176 176 177 175 178 176 172 176 176 175 181 170
333 321 303 293 30 50 162 1 351 338 337 334 339 336 334 323 317 310 303 289 260 240 194 194 193 190 186 177 180 182 175 179 178 178 177 179 184 186 178 196 183 188 187 178
248 346 346 330 329 328 334 323 332 326 338 327 338 330 340 333 331 326 313 301 270 236 201 201 196 192 185 184 180 182 178 177 179 182 181 181 184 181 186 189 177 62 21 103